Location: El Centro
(32.7920°N, 115.5620°W)
Time: 00:52:05
(UTC-07:00)

Amateur Radio Satellites - All Passes

Search period start: 30 August 2015 00:22
Search period end: 31 August 2015 00:22
Location: El Centro, 32.7920°N, 115.5620°W

Satellite Date Start Highest point End Downlink Frequencies (MHz)
Time Altitude Azimuth
AUBIESAT-1 30 Aug 00:22:11 00:25:03 19° 295° (WNW) 00:27:40 437.475
M-CUBED/EXP-1 PRIME 30 Aug 00:25:48 00:28:12 15° 296° (WNW) 00:30:22 437.505
Cosmos 2504 30 Aug 00:28:11 00:35:50 49° 282° (WNW) 00:43:55 435.465 / 435.565
TIGRISAT 30 Aug 00:31:00 00:33:28 14° 292° (WNW) 00:35:42 435.000
ITUPSAT 1 30 Aug 00:31:13 00:31:29 10° 66° (ENE) 00:32:04 437.325
QB50P1 30 Aug 00:34:01 00:37:50 31° 287° (WNW) 00:41:35 145.935-145.965
Oscar 19 30 Aug 00:51:21 00:52:45 11° 90° (E) 00:54:35 437.125/150
BEESAT 30 Aug 01:02:07 01:05:52 24° 71° (ENE) 01:09:45 436.000
TISAT 1 30 Aug 01:12:46 01:16:34 33° 263° (W) 01:20:23 437.305
PCSat 30 Aug 01:16:19 01:20:45 27° 108° (ESE) 01:25:20 145.827
SWISSCUBE 30 Aug 01:26:49 01:31:24 50° 74° (ENE) 01:36:02 437.505
RS-15 30 Aug 01:33:40 01:45:26 63° 57° (ENE) 01:57:36 29.354- 29.394
BEESAT 3 30 Aug 01:34:10 01:37:42 29° 247° (WSW) 01:41:07 437.485
SO-50 30 Aug 01:38:48 01:43:31 65° 300° (WNW) 01:48:23 436.795
BEESAT 2 30 Aug 01:42:58 01:46:36 32° 247° (WSW) 01:50:09 435.950
ITUPSAT 1 30 Aug 02:04:06 02:08:52 70° 259° (WSW) 02:13:39 437.325
AIST 2 30 Aug 02:04:22 02:08:31 68° 60° (ENE) 02:12:35 435.215
Oscar 19 30 Aug 02:27:29 02:32:39 65° 285° (WNW) 02:37:46 437.125/150
STARS 30 Aug 02:33:50 02:36:57 20° 70° (ENE) 02:40:14 437.465
BEESAT 30 Aug 02:39:31 02:43:37 27° 264° (W) 02:47:39 436.000
GONETS M04 30 Aug 02:40:16 02:48:35 55° 91° (E) 02:57:01
KKS-1 30 Aug 02:46:00 02:50:16 49° 75° (ENE) 02:54:36 437.445
JAS-2 30 Aug 02:47:56 02:53:30 27° 91° (E) 02:58:42 435.910
Gurwin Techsat 1B 30 Aug 02:51:51 02:57:07 62° 101° (E) 03:02:22 435.225
PCSat 30 Aug 02:59:12 03:04:04 33° 303° (WNW) 03:08:54 145.827
Cosmos 2499 30 Aug 03:03:39 03:08:10 17° 82° (E) 03:13:24 435.465 / 435.565
SWISSCUBE 30 Aug 03:07:18 03:09:36 13° 269° (W) 03:11:36 437.505
ITAMSAT 1 30 Aug 03:21:43 03:26:55 82° 285° (WNW) 03:32:07 435.822/435.867
RS-15 30 Aug 03:47:05 03:57:27 34° 253° (WSW) 04:07:35 29.354- 29.394
HORYU 2 30 Aug 03:53:25 03:56:50 22° 95° (E) 04:00:21 437.375
VERMONT LUNAR 30 Aug 03:54:41 03:57:40 80° 152° (SSE) 04:00:39 437.305
STARS 30 Aug 04:09:22 04:13:13 29° 263° (W) 04:17:03 437.465
AO-7 30 Aug 04:17:22 04:25:24 53° 102° (ESE) 04:33:25 29.400- 29.500
MOZHAYETS 4 30 Aug 04:20:08 04:24:44 73° 77° (ENE) 04:29:20
KKS-1 30 Aug 04:25:38 04:27:14 11° 269° (W) 04:28:33 437.445
JAS-2 30 Aug 04:32:19 04:38:48 41° 290° (WNW) 04:44:29 435.910
Gurwin Techsat 1B 30 Aug 04:33:54 04:36:38 14° 294° (WNW) 04:39:05 435.225
GONETS M04 30 Aug 04:38:46 04:45:56 27° 289° (WNW) 04:52:48
Cosmos 2499 30 Aug 04:52:04 05:00:22 81° 278° (W) 05:09:12 435.465 / 435.565
O/OREOS (USA 219) 30 Aug 05:14:32 05:18:58 46° 68° (ENE) 05:23:22 437.305
HORYU 2 30 Aug 05:29:42 05:33:27 26° 289° (WNW) 05:37:04 437.375
VERMONT LUNAR 30 Aug 05:31:50 05:34:19 23° 347° (NNW) 05:36:48 437.305
PHONESAT 2.4 30 Aug 05:37:00 05:40:14 42° 148° (SSE) 05:43:29 2401.200-2431.200
CUBESAT XI-V 30 Aug 06:08:36 06:13:12 88° 78° (ENE) 06:17:48 437.345
AO-7 30 Aug 06:10:52 06:17:51 30° 297° (WNW) 06:24:37 29.400- 29.500
Cubesat XI-IV 30 Aug 06:25:44 06:30:33 35° 97° (E) 06:35:25 437.490
STRAND 1 30 Aug 06:50:18 06:55:19 62° 75° (ENE) 07:00:22 437.568
Cosmos 2499 30 Aug 06:51:16 06:55:15 13° 298° (WNW) 06:58:32 435.465 / 435.565
O/OREOS (USA 219) 30 Aug 06:55:51 06:58:01 13° 260° (W) 06:59:55 437.305
BRITE-PL 30 Aug 06:57:41 07:00:06 13° 90° (E) 07:02:56 437.365/2234.400
VERMONT LUNAR 30 Aug 07:09:10 07:11:20 18° 4° (N) 07:13:32 437.305
CUTE-I 30 Aug 07:10:55 07:16:15 81° 284° (WNW) 07:21:35 437.470
PHONESAT 2.4 30 Aug 07:14:58 07:18:09 36° 342° (NNW) 07:21:21 2401.200-2431.200
PRISM 30 Aug 07:23:34 07:27:40 75° 258° (WSW) 07:31:46 437.425
AIST 1 30 Aug 07:29:28 07:32:22 19° 90° (E) 07:35:25
GOMX 1 30 Aug 07:35:09 07:38:47 19° 92° (E) 07:42:40 467.674
ISS 30 Aug 07:46:42 07:47:56 12° 127° (SE) 07:49:19 145.825
DOVE 4 30 Aug 07:57:49 08:01:18 18° 91° (E) 08:04:58 437.250
Cubesat XI-IV 30 Aug 08:06:16 08:10:29 24° 291° (WNW) 08:14:34 437.490
CANX-2 30 Aug 08:07:54 08:09:44 13° 91° (E) 08:11:47 2200.000
YUBILEINY 30 Aug 08:08:59 08:17:26 49° 78° (ENE) 08:25:53 435.215
SEEDS 30 Aug 08:31:49 08:34:35 18° 93° (E) 08:37:29 437.485
STRAND 1 30 Aug 08:33:06 08:35:00 12° 270° (W) 08:36:33 437.568
BRITE-PL 30 Aug 08:33:32 08:39:02 67° 284° (WNW) 08:44:41 437.365/2234.400
VERMONT LUNAR 30 Aug 08:45:22 08:48:14 42° 21° (NNE) 08:51:05 437.305
Cosmos 2491 30 Aug 08:49:57 08:58:17 54° 91° (E) 09:06:42 435.465 / 435.565
PHONESAT 2.4 30 Aug 08:53:53 08:56:34 21° 359° (N) 08:59:17 2401.200-2431.200
CINEMA 3 30 Aug 08:55:49 09:00:08 30° 95° (E) 09:04:24 145.822/145.860
COMPASS 1 30 Aug 08:56:07 08:59:37 27° 96° (E) 09:03:10 437.405
CUBEBUG 2 30 Aug 09:00:02 09:01:49 12° 90° (E) 09:03:53 437.445
AIST 1 30 Aug 09:06:18 09:09:52 25° 283° (WNW) 09:13:21
AAUSAT CUBESAT 2 30 Aug 09:07:47 09:11:26 31° 97° (E) 09:15:07 437.432
UWE-3 30 Aug 09:10:48 09:12:28 12° 90° (E) 09:14:25 435.000/436.395/437.385
GOMX 1 30 Aug 09:11:53 09:17:07 47° 286° (WNW) 09:22:20 467.674
HO-68 30 Aug 09:17:47 09:25:01 79° 104° (ESE) 09:32:13 435.675
UNISAT 6 30 Aug 09:20:04 09:21:52 12° 68° (ENE) 09:23:58 437.425
ISS 30 Aug 09:20:57 09:24:03 43° 319° (NW) 09:27:10 145.825
CUTE 1.7 + AOD 2 30 Aug 09:27:58 09:32:10 66° 284° (WNW) 09:36:19 437.475
AUBIESAT-1 30 Aug 09:30:02 09:33:20 20° 66° (ENE) 09:36:47 437.475
M-CUBED/EXP-1 PRIME 30 Aug 09:33:02 09:36:52 25° 67° (ENE) 09:40:49 437.505
DOVE 4 30 Aug 09:34:12 09:39:16 45° 286° (WNW) 09:44:14 437.250
CANX-2 30 Aug 09:41:55 09:45:52 38° 286° (WNW) 09:49:45 2200.000
DELFI C3 30 Aug 09:44:44 09:47:44 21° 95° (E) 09:50:49 145.870
TIGRISAT 30 Aug 09:47:18 09:50:59 24° 71° (ENE) 09:54:49 435.000
Oscar 11 30 Aug 10:02:27 10:06:43 61° 100° (E) 10:10:58 145.826/435.025
ANTELSAT 30 Aug 10:03:00 10:07:17 38° 73° (ENE) 10:11:39 437.575/2403.000
YUBILEINY 30 Aug 10:06:31 10:13:57 30° 273° (W) 10:21:04 435.215
HUMSAT D 30 Aug 10:06:47 10:08:51 14° 91° (E) 10:11:09 437.325/437.525
SEEDS 30 Aug 10:06:48 10:10:25 28° 287° (WNW) 10:13:56 437.485
SO-50 30 Aug 10:14:51 10:19:20 35° 55° (NE) 10:23:44 436.795
Cosmos 2504 30 Aug 10:20:08 10:28:06 45° 77° (ENE) 10:35:40 435.465 / 435.565
VERMONT LUNAR 30 Aug 10:22:02 10:24:35 25° 214° (SW) 10:27:06 437.305
PHONESAT 2.4 30 Aug 10:31:54 10:35:02 33° 16° (NNE) 10:38:10 2401.200-2431.200
COMPASS 1 30 Aug 10:32:10 10:35:07 18° 289° (WNW) 10:37:55 437.405
CINEMA 3 30 Aug 10:33:07 10:37:10 25° 289° (WNW) 10:41:01 145.822/145.860
CUBEBUG 2 30 Aug 10:34:20 10:38:52 49° 285° (WNW) 10:43:14 437.445
50 SAT 30 Aug 10:37:17 10:38:15 11° 91° (E) 10:39:28 437.505
VELOX 1 30 Aug 10:38:29 10:39:15 11° 90° (E) 10:40:22 145.980
ZACube-1 30 Aug 10:41:46 10:46:15 71° 283° (WNW) 10:50:36 437.345
AAUSAT CUBESAT 2 30 Aug 10:44:11 10:46:48 16° 290° (WNW) 10:49:15 437.432
UWE-3 30 Aug 10:44:55 10:49:21 48° 285° (WNW) 10:53:38 435.000/436.395/437.385
CUSAT 1 30 Aug 10:46:23 10:53:50 45° 76° (ENE) 11:01:39 437.405
POLYITAN 1 30 Aug 10:46:43 10:50:40 39° 74° (ENE) 10:54:41 437.675
FUNcube-1 30 Aug 10:48:00 10:52:26 61° 284° (WNW) 10:56:44 145.935
Cosmos 2491 30 Aug 10:48:24 10:55:37 27° 289° (WNW) 11:02:32 435.465 / 435.565
POPSAT HIP 1 30 Aug 10:49:58 10:53:57 41° 74° (ENE) 10:57:59 437.405
DUCHIFAT 1 30 Aug 10:51:58 10:55:55 42° 74° (ENE) 10:59:57 145.980
UNISAT 6 30 Aug 10:53:39 10:58:12 55° 260° (W) 11:02:50 437.425
DANDE 30 Aug 11:01:47 11:08:56 42° 76° (ENE) 11:16:55 436.750
AUBIESAT-1 30 Aug 11:03:21 11:07:46 38° 258° (WSW) 11:12:09 437.475
QB50P2 30 Aug 11:06:14 11:10:27 72° 76° (ENE) 11:14:43 145.880/145.840
BUGSAT 1 30 Aug 11:07:12 11:10:54 37° 74° (ENE) 11:14:43 437.445
M-CUBED/EXP-1 PRIME 30 Aug 11:07:17 11:11:29 30° 259° (W) 11:15:39 437.505
HO-68 30 Aug 11:07:35 11:12:04 17° 298° (WNW) 11:16:09 435.675
NANOSAT C BR1 30 Aug 11:08:36 11:12:47 72° 77° (ENE) 11:17:02 145.865
DELFI C3 30 Aug 11:19:38 11:22:43 21° 288° (WNW) 11:25:42 145.870
QB50P1 30 Aug 11:21:32 11:25:45 76° 258° (WSW) 11:30:01 145.935-145.965
TIGRISAT 30 Aug 11:23:41 11:27:38 26° 265° (W) 11:31:32 435.000
ESTCUBE 1 30 Aug 11:24:05 11:27:58 29° 97° (E) 11:31:55 437.505/2401.250
DX 1 30 Aug 11:27:39 11:32:02 76° 102° (ESE) 11:36:25 434.975-435.025
HUMSAT D 30 Aug 11:40:52 11:44:47 36° 286° (WNW) 11:48:35 437.325/437.525
ANTELSAT 30 Aug 11:41:07 11:44:13 17° 268° (W) 11:47:07 437.575/2403.000
UKube-1 30 Aug 11:42:54 11:47:15 79° 284° (WNW) 11:51:34 .
AISAT 30 Aug 11:43:00 11:47:30 72° 102° (ESE) 11:51:57 437.250
CUBEBUG 1 30 Aug 11:48:49 11:53:04 46° 99° (E) 11:57:20 437.445
PCSat 30 Aug 11:50:45 11:56:12 78° 64° (ENE) 12:01:36 145.827
SPROUT 30 Aug 11:52:28 11:54:31 13° 92° (E) 11:56:47 437.525
SO-50 30 Aug 11:55:53 11:59:41 22° 250° (WSW) 12:03:15 436.795
Oscar 19 30 Aug 12:04:32 12:06:02 11° 66° (ENE) 12:07:51 437.125/150
50 SAT 30 Aug 12:09:25 12:13:00 36° 286° (WNW) 12:16:31 437.505
PHONESAT 2.4 30 Aug 12:09:41 12:13:00 50° 211° (SSW) 12:16:18 2401.200-2431.200
VELOX 1 30 Aug 12:11:49 12:16:11 53° 285° (WNW) 12:20:31 145.980
Cosmos 2504 30 Aug 12:12:49 12:20:03 32° 274° (W) 12:26:41 435.465 / 435.565
POLYITAN 1 30 Aug 12:24:37 12:26:46 13° 268° (W) 12:28:43 437.675
POPSAT HIP 1 30 Aug 12:28:11 12:30:04 12° 269° (W) 12:31:41 437.405
CUSAT 1 30 Aug 12:29:10 12:36:15 35° 269° (W) 12:43:22 437.405
JUGNU 30 Aug 12:29:58 12:32:40 13° 165° (SSE) 12:35:30 437.505
DUCHIFAT 1 30 Aug 12:30:13 12:31:59 12° 269° (W) 12:33:30 145.980
BUGSAT 1 30 Aug 12:44:46 12:46:35 12° 268° (W) 12:48:12 437.445
DANDE 30 Aug 12:44:54 12:52:02 39° 268° (W) 12:59:37 436.750
GONETS M04 30 Aug 12:57:11 13:03:16 21° 68° (ENE) 13:09:48
TISAT 1 30 Aug 13:01:03 13:05:12 50° 99° (E) 13:09:22 437.305
ESTCUBE 1 30 Aug 13:01:18 13:04:40 20° 289° (WNW) 13:07:54 437.505/2401.250
SPROUT 30 Aug 13:26:43 13:30:48 40° 286° (WNW) 13:34:49 437.525
CUBEBUG 1 30 Aug 13:26:58 13:29:03 13° 291° (WNW) 13:30:55 437.445
SWISSCUBE 30 Aug 13:32:33 13:35:45 18° 94° (E) 13:39:06 437.505
Oscar 19 30 Aug 13:39:43 13:44:51 71° 258° (WSW) 13:50:02 437.125/150
Gurwin Techsat 1B 30 Aug 14:08:27 14:13:40 63° 75° (ENE) 14:18:57 435.225
ITUPSAT 1 30 Aug 14:09:15 14:13:46 42° 99° (E) 14:18:18 437.325
JUGNU 30 Aug 14:16:44 14:21:05 21° 174° (S) 14:25:26 437.505
ITAMSAT 1 30 Aug 14:35:11 14:40:23 85° 257° (WSW) 14:45:35 435.822/435.867
JAS-2 30 Aug 14:36:22 14:43:40 59° 73° (ENE) 14:51:24 435.910
TISAT 1 30 Aug 14:39:13 14:40:34 11° 292° (WNW) 14:41:39 437.305
KKS-1 30 Aug 14:43:08 14:45:18 14° 92° (E) 14:47:44 437.445
BEESAT 30 Aug 14:43:18 14:48:03 76° 284° (WNW) 14:52:48 436.000
HORYU 2 30 Aug 14:48:53 14:50:47 13° 68° (ENE) 14:52:56 437.375
Cosmos 2499 30 Aug 14:50:07 14:57:17 30° 71° (ENE) 15:04:17 435.465 / 435.565
GONETS M04 30 Aug 14:52:13 15:00:58 69° 267° (W) 15:09:41
SWISSCUBE 30 Aug 15:09:22 15:13:44 35° 287° (WNW) 15:18:00 437.505
AO-7 30 Aug 15:11:20 15:19:12 49° 68° (ENE) 15:27:09 29.400- 29.500
BEESAT 3 30 Aug 15:21:35 15:25:34 58° 300° (WNW) 15:29:35 437.485
SRMSAT 30 Aug 15:24:03 15:28:01 19° 170° (S) 15:32:02 437.500
BEESAT 2 30 Aug 15:31:25 15:35:27 62° 300° (WNW) 15:39:32 435.950
ITUPSAT 1 30 Aug 15:48:22 15:51:21 16° 292° (WNW) 15:54:08 437.325
RS-15 30 Aug 15:51:26 16:01:59 62° 112° (ESE) 16:12:58 29.354- 29.394
Gurwin Techsat 1B 30 Aug 15:51:55 15:54:10 12° 270° (W) 15:56:03 435.225
ISS 30 Aug 15:52:04 15:54:44 23° 36° (NE) 15:57:25 145.825
AIST 2 30 Aug 15:57:52 16:01:51 42° 114° (ESE) 16:05:53 435.215
STARS 30 Aug 16:02:42 16:07:09 72° 102° (ESE) 16:11:33 437.465
JUGNU 30 Aug 16:05:05 16:09:30 22° 184° (S) 16:13:54 437.505
KKS-1 30 Aug 16:17:55 16:22:11 42° 286° (WNW) 16:26:23 437.445
MOZHAYETS 4 30 Aug 16:20:23 16:24:00 24° 95° (E) 16:27:42
HORYU 2 30 Aug 16:22:41 16:27:02 48° 261° (W) 16:31:24 437.375
JAS-2 30 Aug 16:23:06 16:29:08 25° 269° (W) 16:35:08 435.910
Cosmos 2499 30 Aug 16:42:37 16:50:48 49° 270° (W) 16:58:21 435.465 / 435.565
CUTE-I 30 Aug 16:52:49 16:54:06 11° 65° (ENE) 16:55:46 437.470
AO-7 30 Aug 17:04:56 17:12:14 32° 263° (W) 17:19:18 29.400- 29.500
SRMSAT 30 Aug 17:12:03 17:16:36 23° 180° (S) 17:21:08 437.500
ISS 30 Aug 17:28:22 17:31:05 24° 230° (SW) 17:33:45 145.825
AIST 2 30 Aug 17:38:00 17:40:39 16° 310° (NW) 17:43:10 435.215
Cubesat XI-IV 30 Aug 17:43:27 17:48:17 38° 72° (ENE) 17:53:13 437.490
JUGNU 30 Aug 17:54:43 17:57:54 15° 193° (SSW) 18:00:59 437.505
MOZHAYETS 4 30 Aug 17:57:24 18:01:10 25° 288° (WNW) 18:04:51
RS-15 30 Aug 18:05:15 18:15:05 35° 314° (NW) 18:25:03 29.354- 29.394
CUBESAT XI-V 30 Aug 18:10:00 18:14:04 30° 96° (E) 18:18:13 437.345
CUTE-I 30 Aug 18:28:18 18:33:37 77° 257° (WSW) 18:38:58 437.470
SRMSAT 30 Aug 19:01:11 19:05:10 19° 190° (S) 19:09:07 437.500
STRAND 1 30 Aug 19:05:43 19:10:07 30° 96° (E) 19:14:37 437.568
Cosmos 2491 30 Aug 19:07:03 19:13:00 21° 68° (ENE) 19:19:24 435.465 / 435.565
PRISM 30 Aug 19:10:49 19:13:49 20° 95° (E) 19:16:57 437.425
AIST 1 30 Aug 19:17:03 19:21:13 47° 81° (E) 19:25:25
O/OREOS (USA 219) 30 Aug 19:22:03 19:26:31 64° 291° (WNW) 19:31:03 437.305
Cubesat XI-IV 30 Aug 19:24:28 19:28:32 21° 266° (W) 19:32:26 437.490
BRITE-PL 30 Aug 19:40:31 19:44:46 89° 84° (E) 19:49:19 437.365/2234.400
HO-68 30 Aug 19:41:46 19:48:08 37° 68° (ENE) 19:54:39 435.675
COMPASS 1 30 Aug 19:45:08 19:46:20 11° 69° (ENE) 19:47:48 437.405
CUBESAT XI-V 30 Aug 19:47:51 19:51:21 21° 289° (WNW) 19:54:43 437.345
CINEMA 3 30 Aug 19:54:06 19:56:54 17° 68° (ENE) 19:59:59 145.822/145.860
AAUSAT CUBESAT 2 30 Aug 19:55:52 19:57:38 13° 70° (ENE) 19:59:38 437.432
GOMX 1 30 Aug 20:15:39 20:19:59 65° 260° (W) 20:24:38 467.674
CUTE 1.7 + AOD 2 30 Aug 20:16:07 20:20:13 47° 76° (ENE) 20:24:22 437.475
RS-15 30 Aug 20:29:41 20:32:41 11° 347° (NNW) 20:35:20 29.354- 29.394
CANX-2 30 Aug 20:29:43 20:34:01 81° 76° (ENE) 20:38:19 2200.000
DOVE 4 30 Aug 20:35:01 20:39:28 70° 260° (W) 20:44:14 437.250
STRAND 1 30 Aug 20:45:02 20:49:14 25° 290° (WNW) 20:53:18 437.568
PRISM 30 Aug 20:45:52 20:49:13 24° 288° (WNW) 20:52:31 437.425
Oscar 11 30 Aug 20:53:10 20:56:48 27° 73° (ENE) 21:00:32 145.826/435.025
SEEDS 30 Aug 20:53:26 20:57:41 74° 259° (W) 21:01:56 437.485
AIST 1 30 Aug 20:57:38 20:58:29 10° 272° (W) 20:59:02
Cosmos 2491 30 Aug 21:02:02 21:10:44 70° 267° (W) 21:19:25 435.465 / 435.565
YUBILEINY 30 Aug 21:03:43 21:12:19 65° 93° (E) 21:21:02 435.215
COMPASS 1 30 Aug 21:17:33 21:21:37 47° 261° (W) 21:25:42 437.405
CUBEBUG 2 30 Aug 21:27:19 21:31:53 80° 76° (ENE) 21:36:36 437.445
AAUSAT CUBESAT 2 30 Aug 21:28:55 21:32:54 41° 262° (W) 21:36:52 437.432
HO-68 30 Aug 21:29:24 21:35:51 35° 263° (W) 21:42:14 435.675
CINEMA 3 30 Aug 21:29:24 21:33:44 41° 263° (W) 21:38:15 145.822/145.860
ZACube-1 30 Aug 21:32:46 21:37:07 51° 75° (ENE) 21:41:35 437.345
UWE-3 30 Aug 21:36:47 21:41:19 79° 77° (ENE) 21:45:59 435.000/436.395/437.385
FUNcube-1 30 Aug 21:38:39 21:43:03 58° 76° (ENE) 21:47:34 145.935
CUTE 1.7 + AOD 2 30 Aug 21:55:07 21:56:26 11° 270° (W) 21:57:28 437.475
DELFI C3 30 Aug 22:01:02 22:05:05 67° 260° (W) 22:09:06 145.870
ANTELSAT 30 Aug 22:02:11 22:03:09 11° 89° (E) 22:04:26 437.575/2403.000
DX 1 30 Aug 22:19:02 22:22:57 36° 73° (ENE) 22:26:56 434.975-435.025
ESTCUBE 1 30 Aug 22:20:28 22:23:13 17° 70° (ENE) 22:26:08 437.505/2401.250
HUMSAT D 30 Aug 22:27:16 22:31:34 84° 78° (ENE) 22:35:55 437.325/437.525
Oscar 11 30 Aug 22:29:42 22:32:59 20° 266° (W) 22:36:09 145.826/435.025
UKube-1 30 Aug 22:33:12 22:37:19 47° 74° (ENE) 22:41:29 .
AISAT 30 Aug 22:36:30 22:40:30 36° 73° (ENE) 22:44:33 437.250
CUBEBUG 1 30 Aug 22:41:18 22:44:35 22° 71° (ENE) 22:48:00 437.445
Cosmos 2504 30 Aug 22:44:25 22:51:26 37° 88° (E) 22:59:01 435.465 / 435.565
RS-15 30 Aug 22:47:00 22:52:34 15° 24° (NNE) 22:58:49 29.354- 29.394
50 SAT 30 Aug 22:47:45 22:51:37 57° 76° (ENE) 22:55:31 437.505
AUBIESAT-1 30 Aug 22:49:20 22:52:12 21° 98° (E) 22:55:01 437.475
UNISAT 6 30 Aug 22:50:18 22:54:39 43° 98° (E) 22:58:53 437.425
M-CUBED/EXP-1 PRIME 30 Aug 22:53:12 22:56:36 29° 100° (E) 22:59:48 437.505
QB50P2 30 Aug 22:57:07 22:59:48 17° 93° (E) 23:02:38 145.880/145.840
NANOSAT C BR1 30 Aug 22:59:01 23:01:41 17° 93° (E) 23:04:30 145.865
YUBILEINY 30 Aug 23:03:13 23:09:55 23° 291° (WNW) 23:16:15 435.215
VELOX 1 30 Aug 23:04:37 23:09:00 77° 76° (ENE) 23:13:25 145.980
QB50P1 30 Aug 23:11:34 23:15:01 24° 95° (E) 23:18:33 145.935-145.965
ZACube-1 30 Aug 23:12:09 23:13:50 11° 270° (W) 23:15:13 437.345
TIGRISAT 30 Aug 23:19:10 23:23:45 87° 283° (WNW) 23:28:11 435.000
ANTELSAT 30 Aug 23:35:54 23:40:21 52° 285° (WNW) 23:44:39 437.575/2403.000
BEESAT 3 30 Aug 23:44:41 23:47:41 20° 53° (NE) 23:50:44 437.485
TISAT 1 30 Aug 23:49:28 23:52:36 21° 71° (ENE) 23:55:51 437.305
CUSAT 1 30 Aug 23:49:52 23:53:03 36° 91° (E) 23:57:12 437.405
BEESAT 2 30 Aug 23:55:12 23:58:09 20° 52° (NE) 00:01:11 435.950
ESTCUBE 1 30 Aug 23:55:41 23:59:50 36° 262° (W) 00:03:57 437.505/2401.250
DX 1 30 Aug 23:56:46 23:59:22 15° 267° (W) 00:01:45 434.975-435.025
DANDE 31 Aug 00:10:44 00:13:32 32° 91° (E) 00:17:06 436.750
POLYITAN 1 31 Aug 00:11:52 00:16:06 56° 285° (WNW) 00:20:18 437.675
UKube-1 31 Aug 00:12:23 00:13:45 11° 269° (W) 00:14:50 .
AISAT 31 Aug 00:14:30 00:17:13 15° 267° (W) 00:19:45 437.250
